Nampa, ID

11:10 PM MDT on August 25, 2016 (GMT -0600)
Nampa

Weather History for KMAN - May, 2013

Change the Weather History Date:

Sunday, May 19, 2013

  Actual Average (KBOI) Record (KBOI)
Temperature  
Mean Temperature 58 °F 60 °F  
Max Temperature 68 °F 73 °F 90 °F (1954)
Min Temperature 48 °F 47 °F 28 °F (1960)
Degree Days  
Heating Degree Days 7 6  
Month to date heating degree days 164  
Since 1 July heating degree days 5388  
Cooling Degree Days 0 1  
Month to date cooling degree days 18  
Year to date cooling degree days 21  
Growing Degree Days 8 (Base 50)    
Moisture  
Dew Point 35 °F    
Average Humidity 43    
Maximum Humidity 66    
Minimum Humidity 26    
Precipitation  
Precipitation 0.00 in 0.04 in 0.75 in (1894)
Month to date precipitation 0.87  
Year to date precipitation 5.72  
Snow  
Snow 0.00 in 0.00 in 0.00 in (2007)
Month to date snowfall 0.0  
Since 1 July snowfall 19.2  
Snow Depth -    
Sea Level Pressure  
Sea Level Pressure 30.16 in    
Wind  
Wind Speed 15 mph (NW)    
Max Wind Speed 20 mph    
Max Gust Speed 30 mph    
Visibility 10 miles    
Events      
T = Trace of Precipitation, MM = Missing Value Source: NWS Daily Summary

Daily Weather History Graph

Daily Weather History Graph

Search for Another Location

Airport or City:

Trip Planner

Search our weather history database for the weather conditions in past years. The results will help you decide how hot, cold, wet, or windy it might be!

Date:

Astronomy

May. 19, 2013 Rise Set
Actual Time 6:16 AM MDT 9:08 PM MDT
Civil Twilight 5:43 AM MDT 9:42 PM MDT
Nautical Twilight 5:00 AM MDT 10:25 PM MDT
Astronomical Twilight 4:11 AM MDT 11:15 PM MDT
Moon 3:07 PM MDT (5/19) 2:53 AM MDT (5/19)
Length of Visible Light 15h 59m
Length of Day
14h 51m
Waxing Gibbous, 66% of the Moon is Illuminated
May 19
Waxing Gibbous
May 24
Full
May 31
Last Quarter
Jun 8
New
Jun 16
First Quarter

Hourly Weather History & Observations

Time (MDT) Temp. Dew Point Humidity Pressure Visibility Wind Dir Wind Speed Gust Speed Precip Events Conditions
12:15 AM 57.2 °F 35.6 °F 44% 30.08 in 10.0 mi NW 16.1 mph 23.0 mph N/A   Overcast
12:35 AM 57.2 °F 35.6 °F 44% 30.09 in 10.0 mi NW 12.7 mph 24.2 mph N/A   Overcast
12:55 AM 55.4 °F 37.4 °F 51% 30.10 in 10.0 mi NW 13.8 mph 21.9 mph N/A   Overcast
1:15 AM 55.4 °F 37.4 °F 51% 30.10 in 10.0 mi NW 16.1 mph 25.3 mph N/A   Mostly Cloudy
1:35 AM 55.4 °F 37.4 °F 51% 30.10 in 10.0 mi NW 16.1 mph 24.2 mph N/A   Scattered Clouds
1:55 AM 53.6 °F 37.4 °F 54% 30.11 in 10.0 mi NW 15.0 mph 27.6 mph N/A   Overcast
2:15 AM 53.6 °F 37.4 °F 54% 30.11 in 10.0 mi NW 17.3 mph 23.0 mph N/A   Mostly Cloudy
2:35 AM 53.6 °F 37.4 °F 54% 30.12 in 10.0 mi NW 15.0 mph 24.2 mph N/A   Scattered Clouds
2:55 AM 53.6 °F 37.4 °F 54% 30.12 in 10.0 mi NW 15.0 mph 21.9 mph N/A   Mostly Cloudy
3:15 AM 53.6 °F 37.4 °F 54% 30.12 in 10.0 mi NW 15.0 mph 19.6 mph N/A   Overcast
3:35 AM 53.6 °F 37.4 °F 54% 30.12 in 10.0 mi NW 16.1 mph 24.2 mph N/A   Overcast
3:55 AM 53.6 °F 37.4 °F 54% 30.13 in 10.0 mi WNW 15.0 mph 20.7 mph N/A   Overcast
4:15 AM 51.8 °F 37.4 °F 58% 30.14 in 10.0 mi NW 13.8 mph 18.4 mph N/A   Overcast
4:35 AM 51.8 °F 37.4 °F 58% 30.15 in 10.0 mi NW 13.8 mph 20.7 mph N/A   Overcast
4:55 AM 50.0 °F 37.4 °F 62% 30.15 in 10.0 mi NW 15.0 mph 19.6 mph N/A   Overcast
5:15 AM 50.0 °F 37.4 °F 62% 30.15 in 10.0 mi WNW 15.0 mph 20.7 mph N/A   Overcast
5:35 AM 50.0 °F 37.4 °F 62% 30.16 in 10.0 mi WNW 10.4 mph 19.6 mph N/A   Overcast
6:15 AM 48.2 °F 37.4 °F 66% 30.17 in 10.0 mi WNW 13.8 mph - N/A   Scattered Clouds
6:35 AM 48.2 °F 37.4 °F 66% 30.17 in 10.0 mi WNW 12.7 mph - N/A   Clear
6:55 AM 48.2 °F 37.4 °F 66% 30.18 in 10.0 mi WNW 13.8 mph - N/A   Clear
7:15 AM 48.2 °F 35.6 °F 62% 30.18 in 10.0 mi WNW 13.8 mph 18.4 mph N/A   Mostly Cloudy
7:35 AM 50.0 °F 35.6 °F 58% 30.19 in 10.0 mi NW 13.8 mph 21.9 mph N/A   Mostly Cloudy
7:55 AM 50.0 °F 35.6 °F 58% 30.19 in 10.0 mi WNW 16.1 mph 21.9 mph N/A   Scattered Clouds
8:15 AM 51.8 °F 35.6 °F 54% 30.20 in 10.0 mi WNW 17.3 mph 21.9 mph N/A   Mostly Cloudy
8:55 AM 51.8 °F 35.6 °F 54% 30.20 in 10.0 mi NW 17.3 mph 25.3 mph N/A   Partly Cloudy
9:15 AM 53.6 °F 35.6 °F 51% 30.21 in 10.0 mi NW 16.1 mph 26.5 mph N/A   Mostly Cloudy
9:35 AM 53.6 °F 35.6 °F 51% 30.21 in 10.0 mi NW 18.4 mph 26.5 mph N/A   Mostly Cloudy
9:55 AM 55.4 °F 35.6 °F 47% 30.21 in 10.0 mi NW 17.3 mph 25.3 mph N/A   Overcast
10:15 AM 55.4 °F 35.6 °F 47% 30.21 in 10.0 mi NW 16.1 mph 25.3 mph N/A   Overcast
10:35 AM 57.2 °F 37.4 °F 48% 30.20 in 10.0 mi NW 18.4 mph 26.5 mph N/A   Scattered Clouds
10:55 AM 57.2 °F 37.4 °F 48% 30.20 in 10.0 mi NW 15.0 mph 23.0 mph N/A   Clear
11:15 AM 59.0 °F 35.6 °F 42% 30.20 in 10.0 mi NNW 15.0 mph 20.7 mph N/A   Clear
11:35 AM 59.0 °F 35.6 °F 42% 30.20 in 10.0 mi NW 12.7 mph 23.0 mph N/A   Clear
11:55 AM 62.6 °F 35.6 °F 37% 30.19 in 10.0 mi NNW 12.7 mph 20.7 mph N/A   Clear
12:15 PM 62.6 °F 35.6 °F 37% 30.19 in 10.0 mi NW 18.4 mph 24.2 mph N/A   Partly Cloudy
12:35 PM 62.6 °F 35.6 °F 37% 30.18 in 10.0 mi WNW 15.0 mph 26.5 mph N/A   Scattered Clouds
1:15 PM 64.4 °F 35.6 °F 34% 30.17 in 10.0 mi NW 17.3 mph 26.5 mph N/A   Scattered Clouds
1:35 PM 64.4 °F 33.8 °F 32% 30.17 in 10.0 mi NW 18.4 mph 26.5 mph N/A   Scattered Clouds
1:55 PM 64.4 °F 33.8 °F 32% 30.16 in 10.0 mi NW 17.3 mph 28.8 mph N/A   Mostly Cloudy
2:15 PM 66.2 °F 33.8 °F 30% 30.16 in 10.0 mi NW 13.8 mph 23.0 mph N/A   Mostly Cloudy
2:35 PM 66.2 °F 33.8 °F 30% 30.16 in 10.0 mi NW 12.7 mph 25.3 mph N/A   Scattered Clouds
2:55 PM 64.4 °F 32.0 °F 30% 30.15 in 10.0 mi NW 18.4 mph 23.0 mph N/A   Mostly Cloudy
3:15 PM 66.2 °F 32.0 °F 28% 30.15 in 10.0 mi NW 15.0 mph 26.5 mph N/A   Scattered Clouds
3:35 PM 68.0 °F 32.0 °F 26% 30.15 in 10.0 mi NW 19.6 mph 24.2 mph N/A   Partly Cloudy
3:55 PM 66.2 °F 32.0 °F 28% 30.14 in 10.0 mi NW 18.4 mph 25.3 mph N/A   Scattered Clouds
4:15 PM 66.2 °F 32.0 °F 28% 30.14 in 10.0 mi NW 18.4 mph 23.0 mph N/A   Scattered Clouds
4:35 PM 68.0 °F 32.0 °F 26% 30.14 in 10.0 mi NW 12.7 mph 25.3 mph N/A   Scattered Clouds
4:55 PM 68.0 °F 32.0 °F 26% 30.14 in 10.0 mi NW 17.3 mph 26.5 mph N/A   Mostly Cloudy
5:15 PM 68.0 °F 32.0 °F 26% 30.14 in 10.0 mi NNW 18.4 mph 29.9 mph N/A   Scattered Clouds
5:35 PM 66.2 °F 32.0 °F 28% 30.14 in 10.0 mi NNW 13.8 mph 19.6 mph N/A   Partly Cloudy
5:55 PM 66.2 °F 32.0 °F 28% 30.14 in 10.0 mi NNW 19.6 mph 24.2 mph N/A   Scattered Clouds
6:15 PM 68.0 °F 32.0 °F 26% 30.14 in 10.0 mi NNW 17.3 mph 23.0 mph N/A   Partly Cloudy
6:35 PM 66.2 °F 32.0 °F 28% 30.14 in 10.0 mi NNW 19.6 mph 26.5 mph N/A   Clear
6:55 PM 66.2 °F 32.0 °F 28% 30.14 in 10.0 mi NW 16.1 mph 25.3 mph N/A   Partly Cloudy
7:15 PM 66.2 °F 32.0 °F 28% 30.13 in 10.0 mi NW 17.3 mph 21.9 mph N/A   Scattered Clouds
7:35 PM 66.2 °F 32.0 °F 28% 30.13 in 10.0 mi NNW 17.3 mph 24.2 mph N/A   Scattered Clouds
7:55 PM 64.4 °F 33.8 °F 32% 30.14 in 10.0 mi NW 15.0 mph 25.3 mph N/A   Partly Cloudy
8:15 PM 64.4 °F 32.0 °F 30% 30.14 in 10.0 mi NNW 17.3 mph 24.2 mph N/A   Clear
8:35 PM 64.4 °F 33.8 °F 32% 30.15 in 10.0 mi NNW 13.8 mph 23.0 mph N/A   Clear
8:55 PM 62.6 °F 35.6 °F 37% 30.15 in 10.0 mi NNW 12.7 mph 18.4 mph N/A   Clear
9:15 PM 60.8 °F 35.6 °F 39% 30.16 in 10.0 mi NNW 11.5 mph 20.7 mph N/A   Clear
9:35 PM 59.0 °F 35.6 °F 42% 30.16 in 10.0 mi NNW 9.2 mph - N/A   Clear
9:55 PM 59.0 °F 35.6 °F 42% 30.17 in 10.0 mi NW 10.4 mph - N/A   Clear
10:15 PM 57.2 °F 33.8 °F 41% 30.18 in 10.0 mi NNW 11.5 mph 16.1 mph N/A   Clear
10:35 PM 57.2 °F 32.0 °F 38% 30.18 in 10.0 mi NW 9.2 mph - N/A   Clear
10:55 PM 57.2 °F 33.8 °F 41% 30.19 in 10.0 mi NW 10.4 mph - N/A   Clear
11:15 PM 57.2 °F 35.6 °F 44% 30.19 in 10.0 mi NW 10.4 mph - N/A   Clear
11:35 PM 55.4 °F 35.6 °F 47% 30.18 in 10.0 mi NW 12.7 mph 19.6 mph N/A   Clear
11:55 PM 55.4 °F 35.6 °F 47% 30.18 in 10.0 mi NW 10.4 mph 17.3 mph N/A   Clear